Home   Weather   Alert   Past weeks

Flag for Canada Past Weather in Alert, Nunavut, Canada — Yesterday and Last 2 Weeks

Now
12 °F

Cold.


Feels Like: -6 °F
Forecast: 12 / 22 °F
Wind: 20 mph from West

Location: Kap Morris Jesup

Current Time: May 25, 2017 at 11:49:08 pm

Latest Report: May 25, 2017 at 10:00 pm


Visibility: N/A

Pressure: 30.26 "Hg

Humidity: 84%

Dew Point: 8 °F

Location of AlertLocation

Past Weather in Alert — Graph

°F

Alert Temperature Yesterday

Maximum temperature yesterday: 13 °F (at 10:00 am)
Minimum temperature yesterday: 9 °F (at 2:00 am)
Average temperature yesterday: 11 °F

High & Low Weather Summary for the Past Weeks

 TemperatureHumidityPressure
High21 °F (May 11, 10:00 am)89% (May 19, 11:00 pm)30.47 "Hg (May 19, 11:00 pm)
Low3 °F (May 13, 11:00 pm)59% (May 13, 12:00 pm)29.76 "Hg (May 19, 4:00 pm)
Average12 °F80%30.15 "Hg
* Reported May 10 10:00 pm — May 25 10:00 pm, Alert. Weather by CustomWeather, © 2017

Note: Actual official high and low records may vary slightly from our data, if they occured in-between our weather recording intervals... More about our weather records

Advertising

Alert Weather History for the Previous 24 Hours

Scroll right to see more
 ConditionsComfort  
Time TempWeatherWind HumidityBarometerVisibility
10:00 pm
Thu, May 25
12 °FCold.20 mph84%30.26 "HgN/A
9:00 pm13 °FCold.21 mph84%30.25 "HgN/A
8:00 pm13 °FCold.21 mph85%30.25 "HgN/A
7:00 pm12 °FCold.20 mph87%30.25 "HgN/A
6:00 pm12 °FCold.20 mph87%30.24 "HgN/A
5:00 pm11 °FCold.20 mph88%30.24 "HgN/A
4:00 pm12 °FCold.16 mph86%30.25 "HgN/A
3:00 pm12 °FCold.14 mph85%30.24 "HgN/A
2:00 pm11 °FCold.14 mph86%30.24 "HgN/A
1:00 pm11 °FCold.14 mph86%30.24 "HgN/A
12:00 pm10 °FFrigid.10 mph85%30.24 "HgN/A
11:00 am10 °FCold.10 mph84%30.24 "HgN/A
10:00 am10 °FFrigid.8 mph84%30.24 "HgN/A
9:00 am10 °FFrigid.6 mph83%30.24 "HgN/A
8:00 am10 °FFrigid.3 mph84%30.23 "HgN/A
7:00 am10 °FCold.1 mph84%30.23 "HgN/A
6:00 am9 °FFrigid.1 mph84%30.22 "HgN/A
5:00 am10 °FFrigid.2 mph86%30.22 "HgN/A
4:00 am11 °FCold.3 mph86%30.22 "HgN/A
3:00 am10 °FFrigid.3 mph87%30.21 "HgN/A
2:00 am10 °FFrigid.6 mph86%30.20 "HgN/A
1:00 am10 °FFrigid.7 mph86%30.19 "HgN/A
12:00 am10 °FCold.7 mph88%30.19 "HgN/A
11:00 pm
Wed, May 24
10 °FCold.8 mph88%30.19 "HgN/A
Weather by CustomWeather, © 2017

See weather overviewHow to use our weather pages